www.pogodaiklimat.ru

Погода и климат >> Архив погоды >> Австралия >> Северная территория >> Маяк Кейп-Дон


ПОГОДА на Маяке Кейп-Дон

  • Прогноз погоды на Маяке Кейп-Дон
  • Монитор погоды на Маяке Кейп-Дон

АРХИВ ПОГОДЫ на Маяке Кейп-Дон

Время (UTC), дата Ветер
(напр.,м/с)
 
Видим.   Явления Облачность Т
(С)
Тd
(С)
f
(%)
Тe
(С)
Тes
(С)
Комфортность P
(гПа)
Po
(гПа)
Тmin
(С)
Tmax
(С)
R
(мм)
R24
(мм)
S
(см)
14 20.05 штиль 0 н/о н/о +22.8 +20.0 84 +29 +29 очень
душно
1014.3 1009.2 +35.6
17 20.05 штиль 0 н/о н/о +19.9 +18.4 91 +23 +23 комфорт 1013.9 1008.8
20 20.05 штиль 0 н/о н/о +19.5 +17.8 90 +22 +22 комфорт 1013.8 1008.7
23 20.05 ЮВ 3 н/о н/о +23.0 +20.1 84 +30 +30 очень
душно
1015.6 1010.5
02 21.05 В 5 н/о н/о +32.4 +17.8 42 +37 +37 очень
душно
1014.5 1009.4 +18.9
05 21.05 ЮВ 8 н/о н/о +35.5 +15.3 30 +37 +37 душно 1011.5 1006.4
08 21.05 В 6 н/о н/о +33.7 +14.2 31 +35 +35 очень
жарко
1011.4 1006.3
11 21.05 СВ 2 н/о н/о +24.6 +18.1 67 +29 +29 душно 1013.7 1008.6
14 21.05 штиль 0 н/о н/о +21.9 +18.1 79 +27 +27 душно 1014.7 1009.6 +35.9
17 21.05 В 1 н/о н/о +20.9 +18.1 84 +26 +26 душно 1014.5 1009.4
20 21.05 ЮВ 2 н/о н/о +19.0 +17.1 89 +21 +21 комфорт 1014.9 1009.8
23 21.05 ЮВ 3 н/о н/о +23.2 +18.3 74 +29 +29 душно 1016.5 1011.4
02 22.05 В 8 н/о н/о +31.6 +16.0 39 +34 +34 душно 1015.5 1010.4 +18.5
05 22.05 ЮВ 7 н/о н/о +34.1 +14.6 31 +36 +36 душно 1012.8 1007.7
08 22.05 В 6 н/о н/о +33.3 +13.4 30 +34 +34 очень
жарко
1011.8 1006.7
11 22.05 штиль 0 н/о н/о +23.6 +17.8 70 +28 +28 душно 1013.8 1008.7
14 22.05 штиль 0 н/о н/о +20.3 +18.1 87 +23 +23 комфорт 1014.3 1009.2 +35.2
17 22.05 ЮВ 3 н/о н/о +19.4 +16.1 81 +22 +22 комфорт 1014.6 1009.5
20 22.05 штиль 0 н/о н/о +19.0 +14.9 77 +20 +20 1014.5 1009.4
23 22.05 ЮВ 3 н/о н/о +22.4 +16.4 69 +27 +27 душно 1016.4 1011.3
02 23.05 ЮВ 8 н/о н/о +31.6 +15.1 37 +34 +34 душно 1015.3 1010.2 +18.1
05 23.05 ЮВ 7 н/о н/о +32.5 +13.7 32 +34 +34 очень
жарко
1012.8 1007.7
08 23.05 ЮВ 5 н/о н/о +31.9 +13.2 32 +33 +33 жарко 1012.5 1007.4
11 23.05 штиль 0 н/о н/о +24.1 +16.6 63 +28 +28 душно 1014.2 1009.1
14 23.05 штиль 0 н/о н/о +21.6 +17.6 78 +26 +26 душно 1014.6 1009.5 +35.2
17 23.05 штиль 0 н/о н/о +18.1 +16.8 92 +18 +18 1013.8 1008.7
20 23.05 штиль 0 н/о н/о +16.8 +15.3 91 +17 +17 1013.9 1008.8
23 23.05 Ю 3 н/о н/о +22.2 +15.5 66 +26 +26 душно 1015.8 1010.7
02 24.05 ЮВ 7 н/о н/о +31.2 +14.8 37 +33 +33 жарко 1015.2 1010.1 +14.9
05 24.05 ЮВ 6 н/о н/о +33.5 +11.4 26 +33 +33 жарко 1011.7 1006.6
08 24.05 ЮВ 5 н/о н/о +32.5 +12.2 29 +33 +33 жарко 1011.0 1005.9
11 24.05 штиль 0 н/о н/о +22.8 +17.5 72 +28 +28 душно 1013.0 1007.9
14 24.05 штиль 0 н/о н/о +20.8 +17.4 81 +24 +24 комфорт 1013.9 1008.8 +34.8
17 24.05 штиль 0 н/о н/о +18.5 +17.0 91 +19 +19 1013.2 1008.1
20 24.05 В 2 н/о н/о +19.3 +16.7 85 +22 +22 комфорт 1013.3 1008.2
23 24.05 ЮЗ 2 н/о н/о +21.4 +17.0 76 +25 +25 комфорт 1015.0 1009.9
02 25.05 СВ 3 н/о н/о +31.2 +18.2 46 +36 +36 очень
душно
1014.2 1009.1 +17.8
05 25.05 ЮВ 6 н/о н/о +33.5 +14.0 31 +35 +35 душно 1011.1 1006.0
08 25.05 ЮВ 3 н/о н/о +33.0 +12.6 29 +33 +33 жарко 1010.6 1005.5
11 25.05 штиль 0 н/о н/о +23.4 +18.3 73 +29 +29 душно 1012.9 1007.8
14 25.05 штиль 0 н/о н/о +19.8 +18.1 90 +22 +22 комфорт 1013.3 1008.2 +35.2
17 25.05 Ю 1 н/о н/о +16.8 +15.2 90 +18 +18 1012.9 1007.8
20 25.05 СВ 2 н/о н/о +17.8 +17.2 96 +19 +19 1012.7 1007.6
23 25.05 ЮВ 2 н/о н/о +21.7 +18.5 82 +26 +26 душно 1014.7 1009.6
02 26.05 В 4 н/о н/о +31.6 +17.5 43 +36 +36 очень
душно
1013.7 1008.6 +16.7
05 26.05 Ю 5 н/о н/о +34.4 +11.5 25 +34 +34 очень
жарко
1010.7 1005.6
08 26.05 ЮВ 4 н/о н/о +32.9 +10.9 26 +33 +33 жарко 1010.4 1005.3
11 26.05 В 2 н/о н/о +25.0 +14.8 53 +28 +28 жарко 1013.0 1007.9
14 26.05 штиль 0 н/о н/о +21.2 +18.0 82 +25 +25 комфорт 1013.6 1008.5 +35.2
17 26.05 С 2 н/о н/о +19.7 +16.7 83 +23 +23 комфорт 1013.0 1007.9
20 26.05 В 2 н/о н/о +17.4 +16.1 92 +18 +18 1013.4 1008.3
23 26.05 ЮВ 2 н/о н/о +21.6 +15.0 66 +25 +25 комфорт 1015.5 1010.4
02 27.05 В 6 н/о н/о +31.4 +10.7 28 +31 +31 жарко 1014.6 1009.5 +16.0
05 27.05 ЮВ 4 н/о н/о +33.5 +8.9 22 +32 +32 жарко 1011.6 1006.5
08 27.05 ЮВ 5 н/о н/о +31.8 +8.1 23 +31 +31 жарко 1011.5 1006.4
11 27.05 штиль 0 н/о н/о +21.6 +13.0 58 +24 +24 комфорт 1013.6 1008.5

 

Местоположение метеостанции Маяк Кейп-Дон (Северная территория, Австралия): широта -13.83 долгота 131.18 высота над уровнем моря 50 м.

В архиве по умолчанию представлена погода на Маяке Кейп-Дон за последнюю неделю. Архивные данные за месяц целиком и за предыдущие месяцы, начиная с января 2011 года, Вы можете получить, выбрав интересующий диапазон дат из раскрывающегося списка и нажав кнопку "Ввод!".


*Определитесь, кто Вы:
робот инопланетянин человек

Внимание! Время в таблицах - всемирное. Для получения местного времени необходимо прибавить поправку, которая равна 9.5 ч.

Смотрите также архив погоды в соседних городах и на ближайших метеорологических станциях:

Погода в Батчелоре (Северная территория, Австралия) (88 км)
Погода в Манбуллу Ксиро (Северная территория, Австралия) (131 км)
Погода в Милд Пойнт (Северная территория, Австралия) (137 км)
Погода в Тиндале (Северная территория, Австралия) (148 км)
Погода на Острове Дам-ин-Мирре (Северная территория, Австралия) (160 км)
Погода в Дарвине (Северная территория, Австралия) (161 км)
Погода в Порт Китс (Северная территория, Австралия) (184 км)
Погода в Пойнт Стьюарт (Северная территория, Австралия) (193 км)
Погода на Центральном плато Арнем (Северная территория, Австралия) (213 км)
Погода в Джаберу (Северная территория, Австралия) (227 км)

Пояснения к столбцам:

Ветер - указаны скорость ветра в м/с - средняя за 10 мин, порывы в срок и между сроками (в фигурных скобках) и направление, откуда дует ветер: С - северный, СВ - северо-восточный, В - восточный, ЮВ - юго-восточный, Ю - южный, ЮЗ - юго-западный, З - западный, СЗ - северо-западный.
Видимость - горизонтальная дальность видимости в метрах или километрах. При видимости от 1 до 10 км при отсутствии осадков обычно наблюдается дымка, при ухудшении видимости до 1 км и менее - туман. В сухую погоду видимость может ухудшаться дымом, пылью или мглою.
Явления - указаны атмосферные явления, наблюдавшиеся в срок или в последний час перед сроком; фигурными скобками обозначены явления, наблюдавшиеся между сроками (за 1-3 часа до срока); квадратными скобками обозначены град или гололедные отложения с указанием их диаметра в мм.
Облачность - указаны через наклонную черту общая и нижняя облачность в баллах и высота нижней границы облаков в метрах; квадратными скобками обозначены формы облаков: Ci - перистые, Cs - перисто-слоистые, Cc - перисто-кучевые, Ac - высококучевые, As - высокослоистые, Sc - слоисто-кучевые, Ns - слоисто-дождевые, Cu - кучевые, Cb - кучево-дождевые. Подробнее классификацию облаков см. в Атласе облаков (PDF).
T - Температура воздуха - температура, измеренная на высоте 2 м над землей.
Td - Температура точки росы - температура, при понижении до которой содержащийся в воздухе водяной пар достигнет насыщения.
f - Относительная влажность воздуха - влажноcть воздуха, измеренная на высоте 2 м над землей.
Te - Эффективная температура - температура, которую ощущает одетый по сезону человек в тени. Характеристика душности погоды. При расчете учитывается влияние влажности воздуха и скорости ветра на теплоощущения человека.
Tes - Эффективная температура на солнце - температура, которую ощущает человек, с поправкой на солнечный нагрев. Характеристика знойности погоды. Зависит от высоты солнца над горизонтом, облачности и скорости ветра. Ночью, в пасмурную погоду, а также при ветре 12 м/с и более поправка равна нулю.
P - Атмосферное давление - приведенное к уровню моря атмосферное давление.
Po - Атмосферное давление - измеренное на уровне метеостанции атмосферное давление.
Tmin - Минимальная температура - минимум температуры воздуха на высоте 2 м над землей.
Tmax - Максимальная температура - максимум температуры воздуха на высоте 2 м над землей.
R - Количество осадков - Количество выпавших осадков за период времени, мм. При наведении курсора мыши на число - период времени, за который выпало указанное количество осадков.
R24 - Количество осадков - Количество выпавших осадков за 24 часа, мм.
S - Снежный покров - Высота снежного покрова, см. При наведении курсора мыши на число - состояние снежного покрова и степень покрытия местности в баллах.